Track WORLDVIEW 2 now! 10-day predictions WORLDVIEW 2 is classified as:
1 35946U 09055A 22220.54275551 -.00000014 00000-0 97088-5 0 9991 2 35946 98.4852 295.0302 0001319 148.9563 211.1712 14.37654678673390